Regional Weather Roundup
Issued by NWS Charleston, WV

Home | Current Version | Previous Version | Graphics & Text | Print | Product List | Glossary On
Versions: 1 2 3 4 5 6 7 8 9 10 11 12 13 14 15 16 17 18 19 20 21 22 23 24 25 26 27 28 29 30 31 32 33 34 35 36 37 38 39 40 41 42 43 44 45 46 47 48 49 50
226
ASUS41 KRLX 131210
RWRRLX
West Virginia Regional Weather Roundup
National Weather Service Charleston WV
700 AM EST SAT FEB 13 2016

Note: "fair" indicates few or no clouds below 12,000 feet with no
significant weather and/or obstructions to visibility.

WVZ003-131300-
Northern Panhandle of West Virginia

CITY           SKY/WX    TMP DP  RH WIND       PRES   REMARKS
WHEELING         N/A      6  -9  50 W14G22    30.27R WCI -11
$$

WVZ009-131300-
Northwest West Virginia

CITY           SKY/WX    TMP DP  RH WIND       PRES   REMARKS
PARKERSBURG      N/A     10  -4  53 NW14G22   30.39R WCI  -6
$$

WVZ006-131300-
Western West Virginia

CITY           SKY/WX    TMP DP  RH WIND       PRES   REMARKS
HUNTINGTON     MOCLDY    14   3  61 NW6       30.40R WCI   5
$$

WVZ015-131300-
West Central West Virginia

CITY           SKY/WX    TMP DP  RH WIND       PRES   REMARKS
CHARLESTON     MOCLDY    14   5  67 NW8       30.36R WCI   3
$$

WVZ022-031-131300-
North Central West Virginia

CITY           SKY/WX    TMP DP  RH WIND       PRES   REMARKS
CLARKSBURG     CLOUDY    11   2  67 NW15G21   30.26R WCI  -5
MORGANTOWN       N/A      9  -5  53 NW9G17    30.25R WCI  -4
$$

WVZ025-035-042-045-131300-
Southern West Virginia

CITY           SKY/WX    TMP DP  RH WIND       PRES   REMARKS
BECKLEY        CLOUDY     8   1  73 NW13G20   30.17R WCI  -8
LOGAN          LGT SNOW  12   7  79 NW7       30.30R WCI   2
BLUEFIELD      FLURRIES   8   2  76 NW13G24   30.14R WCI  -8
LEWISBURG      CLOUDY    13   6  72 NW9       30.14R WCI   1
$$

WVZ047-131300-
Northern Mountains of West Virginia

CITY           SKY/WX    TMP DP  RH WIND       PRES   REMARKS
ELKINS         LGT SNOW   9   0  67 NW14G29   30.16R WCI  -7
$$

WVZ052-131300-
Eastern Panhandle of West Virginia

CITY           SKY/WX    TMP DP  RH WIND       PRES   REMARKS
MARTINSBURG    LGT SNOW  16   9  74 NW20G26   30.16R VSB 1   WCI  -1
PETERSBURG     CLOUDY    15   0  50 NW13G22   30.19R WCI   1
$$




USA.gov is the U.S. government's official web portal to all federal, state and local government web resources and services.